Location: Sternwarte Radebeul
(51.1160°N, 13.6224°E)
Time: 17:31:47
(UTC+01:00)

ISS - Pass Details

Date: 24 January 2020
Orbit: 415 x 422 km, 51.6° (Epoch: 26 February)

Event Time Altitude Azimuth Distance (km) Brightness Sun altitude
Rises 18:20:16 0° 229° (SW) 2,372 1.2 -15.3°
Reaches altitude 10° 18:22:27 10° 222° (SW) 1,509 -0.1 -15.6°
Maximum altitude 18:25:37 38° 152° (SSE) 660 -3.0 -16.1°
Enters shadow 18:26:24 33° 119° (ESE) 738 -2.9 -16.2°
